Theta_e
295 295 294 294 294 295 295 296 297 299 300 300 299 298 298 297 297 296 293 292 292 292 293 293 294 294 293 292 292 292 291 291 291 292 292 292 290 290 287 287 288 286 284 282 280 280 280 280 279 279 278 278 278 278 278 279 279 279 279 278 278 277 277 277 277 275 276 278 279 279 278 278 277 277 276 276 276 277 281 279 278 278 278 278 277
295 294 294 294 294 295 294 295 296 297 298 299 298 298 297 296 296 293 291 290 290 291 292 292 293 293 293 292 292 291 291 291 290 290 291 290 289 288 287 286 287 285 283 282 280 280 280 280 279 278 278 279 279 279 279 278 278 278 277 278 277 277 277 277 276 277 277 276 277 278 277 278 277 277 276 276 276 277 277 278 279 278 277 277 276
295 294 294 293 293 293 293 293 293 293 295 297 297 297 296 296 295 293 292 291 290 291 291 291 292 292 292 291 291 290 290 290 289 289 290 290 289 287 287 286 286 284 282 282 280 279 279 280 279 279 279 279 278 279 278 278 278 278 278 277 278 277 277 277 276 276 277 277 277 277 277 276 277 276 277 277 277 277 277 277 277 278 278 277 277
294 294 293 293 292 291 292 292 291 292 293 294 294 295 295 295 294 293 292 290 290 290 291 291 291 291 291 291 290 290 290 290 288 288 289 289 289 288 286 285 286 284 283 282 280 279 280 280 280 279 279 278 278 277 277 277 277 278 278 277 278 278 277 276 277 276 276 276 276 277 277 276 276 275 277 277 276 276 277 277 277 277 277 278 277
293 293 292 291 290 290 290 290 291 291 292 292 292 293 294 294 293 293 292 290 289 289 289 290 290 290 290 290 290 290 290 289 288 288 289 289 289 288 286 286 285 284 283 282 281 280 280 280 280 279 278 278 277 276 276 276 277 278 278 277 276 277 277 276 276 276 276 276 276 276 276 276 276 276 276 276 276 276 276 276 276 276 276 276 276
293 293 291 290 290 289 290 290 291 291 291 291 292 293 293 293 293 292 291 291 289 289 289 288 288 289 289 289 289 289 289 289 289 288 288 288 288 288 287 286 285 284 283 282 281 280 280 280 279 278 278 278 277 277 277 277 277 277 277 276 276 277 277 276 276 276 277 276 276 274 275 275 274 275 276 276 275 274 275 275 275 275 275 275 275
293 292 291 290 290 290 290 290 291 291 291 291 291 291 292 293 293 292 291 291 289 288 288 288 288 288 288 288 288 289 288 288 288 288 287 287 287 287 286 285 284 283 282 281 281 280 280 280 279 278 278 278 278 278 278 277 277 277 277 277 277 277 277 276 276 276 276 275 275 275 275 275 275 274 275 276 276 275 274 274 274 275 274 274 274
292 292 291 290 291 291 291 291 290 291 290 290 290 290 291 292 293 292 291 290 290 289 288 288 287 287 288 288 288 288 288 287 287 287 287 287 286 285 285 284 283 282 281 280 280 280 279 279 279 279 279 280 279 279 278 278 278 277 277 277 277 277 277 277 276 276 276 275 275 274 275 274 274 275 275 275 274 274 275 274 274 273 273 273 273
291 291 290 291 292 292 290 289 290 289 289 289 289 289 290 290 291 291 291 290 290 290 289 288 287 287 287 287 287 287 287 287 287 287 286 285 285 285 284 284 283 282 280 279 279 279 279 279 279 280 280 281 282 282 281 281 278 278 277 277 277 277 277 277 276 276 275 275 275 275 274 274 274 274 274 274 274 274 274 275 273 273 272 272 272
291 291 291 292 292 291 289 289 289 289 289 289 289 289 289 289 289 289 290 290 290 289 288 287 287 287 286 286 286 286 286 287 287 288 288 286 285 285 284 284 283 281 280 279 279 279 279 279 280 281 281 282 282 283 284 284 283 280 278 278 278 278 277 276 276 276 275 274 274 275 274 274 274 274 274 275 275 275 273 273 273 273 271 271 272
290 291 292 292 292 289 289 289 289 289 289 289 289 288 288 288 288 289 289 289 289 288 288 287 286 286 286 285 285 286 286 286 287 289 290 289 286 284 284 283 282 281 280 279 279 278 278 279 279 280 281 282 282 284 285 285 284 283 282 282 281 279 277 276 276 276 275 275 275 275 274 274 275 275 275 275 275 274 274 273 273 272 272 270 270
291 291 292 292 290 290 289 288 288 289 289 289 288 288 288 287 288 288 289 288 288 288 287 287 287 286 286 285 285 285 285 286 289 289 290 290 287 284 283 283 282 282 281 280 279 279 278 278 278 279 280 280 280 281 283 284 284 284 283 283 283 283 282 279 277 275 275 275 274 275 275 275 275 275 275 275 274 274 274 273 273 272 271 270 270
291 291 291 290 290 290 289 288 288 288 288 288 288 287 287 287 288 288 288 289 288 287 287 287 286 286 286 285 284 285 285 287 289 290 289 290 289 286 283 283 282 281 281 280 279 278 278 278 278 278 279 281 281 280 280 281 284 284 283 283 283 284 284 284 283 279 278 276 275 275 275 275 275 275 276 275 276 274 273 272 271 271 271 271 270
289 290 290 290 290 289 288 288 288 288 288 287 287 287 287 287 288 288 288 287 288 288 287 287 287 286 286 285 285 285 284 286 288 289 289 289 289 288 283 283 282 281 280 280 279 279 278 278 278 278 278 279 280 280 280 280 281 281 281 280 281 282 284 284 283 282 280 278 277 276 277 277 276 276 276 278 275 273 273 272 271 271 270 271 271
288 289 289 290 289 288 288 288 288 288 287 287 287 287 287 287 287 287 287 287 287 287 287 287 287 287 286 286 285 285 285 287 288 288 289 289 289 288 284 282 282 281 281 280 280 279 279 278 278 278 278 279 279 280 280 280 280 280 279 279 279 280 281 281 281 281 279 278 278 278 277 277 277 276 275 277 276 275 274 273 273 272 270 270 269
288 288 288 289 288 288 288 287 287 287 287 286 286 286 286 287 287 287 287 287 287 287 288 287 287 286 286 286 285 285 285 287 287 288 288 289 290 286 284 282 281 281 280 280 279 279 279 279 278 278 278 278 281 283 282 280 279 279 278 279 279 279 279 281 283 283 281 279 278 278 277 277 279 276 276 276 276 274 272 269 269 267 267 268 268
288 288 288 288 288 288 288 288 287 287 287 286 286 286 286 286 286 287 286 286 286 286 286 287 287 287 286 286 285 285 285 286 287 288 288 289 289 285 284 282 281 280 279 280 279 279 279 279 279 278 278 278 282 285 284 282 279 279 278 278 278 277 278 279 283 284 284 283 282 282 281 281 281 282 281 281 279 275 272 270 270 270 269 269 270
288 287 288 288 288 288 288 287 287 287 287 286 287 287 287 286 286 286 286 286 286 286 286 286 286 286 286 286 285 284 284 284 287 287 288 289 287 285 283 282 281 280 279 279 279 279 279 280 280 278 278 278 284 285 285 282 278 278 277 277 276 276 276 278 278 280 283 284 284 283 283 282 282 282 283 282 283 280 273 272 273 272 270 271 269
287 288 288 288 287 287 287 287 287 287 287 287 287 287 286 286 286 286 286 286 286 286 285 285 285 285 285 285 285 285 284 284 286 287 288 288 287 285 283 281 280 279 279 278 279 278 278 280 280 280 279 280 285 286 285 281 278 278 277 277 276 275 276 277 276 276 277 278 279 280 280 281 281 279 279 283 283 283 278 276 275 273 271 271 271
288 286 287 286 286 286 286 287 287 287 287 287 287 287 287 286 285 285 285 285 285 285 284 284 284 284 284 284 284 284 284 284 284 287 287 288 289 285 283 281 279 279 278 278 277 277 278 278 280 282 282 283 284 286 285 282 279 278 278 276 276 276 277 276 276 276 276 276 276 276 276 273 272 273 273 274 275 277 277 276 275 273 272 271 270
285 286 285 285 285 286 286 286 287 287 287 287 287 286 285 285 284 284 284 283 283 283 283 283 283 283 282 281 282 283 284 283 284 286 287 288 289 286 282 281 280 279 278 278 277 277 277 278 278 282 283 283 285 286 285 284 282 278 278 277 278 278 278 275 276 278 275 274 274 272 272 270 270 270 271 272 273 274 275 276 274 274 272 270 268
284 284 284 285 285 285 285 286 286 287 287 286 285 285 284 284 284 284 283 283 282 282 281 281 281 281 280 279 280 281 282 283 282 285 287 288 289 287 283 281 281 279 278 278 278 277 277 278 278 281 284 284 285 286 286 286 284 279 278 281 281 281 277 275 275 275 273 272 271 271 270 269 269 269 270 271 272 273 274 274 275 273 273 273 271
283 283 283 284 284 285 285 285 286 286 286 285 285 285 283 282 282 282 282 281 281 281 281 280 280 280 279 278 279 281 281 282 283 283 286 287 289 287 286 283 284 280 279 278 278 278 279 279 279 281 284 285 285 286 287 287 285 281 282 283 282 282 278 274 273 273 272 271 270 270 270 270 270 270 271 271 273 273 274 274 275 275 275 275 274
282 282 283 283 283 283 284 284 284 284 284 284 283 284 282 281 281 281 281 281 281 281 280 279 279 279 278 278 278 279 280 280 282 284 285 287 289 288 287 285 284 281 281 280 280 279 279 279 279 282 284 285 286 286 287 286 285 285 284 283 283 282 277 273 272 272 272 271 270 270 270 271 272 272 272 273 273 274 274 274 274 275 274 274 273
281 282 283 283 283 283 282 282 282 282 282 283 283 283 281 280 281 279 280 280 280 280 279 278 279 279 279 279 278 278 279 280 281 283 284 286 288 288 286 285 285 284 281 281 281 280 280 281 282 282 284 285 286 286 286 286 286 285 285 283 282 281 277 274 273 272 271 271 271 271 272 273 273 274 274 274 274 274 272 272 272 272 270 270 269
281 282 282 282 282 281 280 280 279 280 281 282 283 283 283 281 281 280 279 279 279 279 279 278 278 278 278 279 278 278 278 279 280 282 284 285 286 286 286 285 284 284 282 282 282 282 282 282 282 283 283 284 284 284 283 283 285 284 284 283 282 280 278 275 274 273 272 272 272 273 273 274 274 275 275 274 273 272 272 271 270 269 268 267 267
281 282 282 282 280 277 279 280 279 278 277 278 279 279 280 280 280 279 279 279 278 278 278 278 278 278 278 278 278 278 277 278 279 281 283 284 284 284 284 284 284 284 282 282 282 281 282 282 281 282 282 283 284 283 283 283 283 283 282 282 281 280 279 278 276 275 275 274 274 274 275 275 274 273 272 272 272 272 272 271 270 269 267 266 266
281 282 281 280 279 277 278 278 279 277 276 278 278 276 276 279 279 279 279 279 278 278 278 278 278 279 279 278 277 277 277 277 278 279 281 283 283 284 283 283 282 282 282 281 281 282 281 282 282 282 281 282 282 281 281 280 280 281 281 281 280 279 279 279 279 277 277 276 275 274 272 272 271 271 271 271 271 270 269 269 268 267 266 265 263
280 279 279 277 278 276 276 276 277 277 276 275 275 276 279 278 279 279 279 281 281 281 280 280 280 281 281 280 278 277 277 277 278 281 281 283 283 283 283 283 282 282 283 283 281 281 281 281 280 280 279 279 279 278 279 278 278 279 279 279 279 278 278 278 277 276 275 273 272 271 270 270 270 269 269 269 268 268 268 267 267 266 265 264 264
278 279 278 277 277 275 275 275 273 275 275 275 275 272 278 280 279 278 278 281 283 285 285 282 283 282 281 281 280 279 278 279 281 282 282 284 284 285 285 285 285 283 284 285 282 280 280 279 279 279 278 278 278 277 277 277 277 277 277 278 277 276 276 276 276 275 273 273 272 271 270 269 268 268 268 267 267 267 267 269 266 266 265 264 263
278 278 278 277 278 277 276 275 276 275 276 275 273 275 273 276 283 284 282 282 283 284 285 285 285 284 282 280 281 283 282 282 282 282 282 283 284 284 285 285 285 285 285 283 281 279 279 279 279 279 278 278 278 277 277 277 276 276 276 277 276 275 275 274 274 273 272 271 271 271 270 270 269 268 267 267 267 266 266 267 266 265 264 264 263
279 280 278 277 277 277 275 275 274 275 273 272 275 274 274 274 274 282 284 283 284 284 285 285 285 284 284 283 281 281 282 282 282 282 282 283 283 284 285 285 286 285 285 285 280 279 279 279 278 278 278 277 277 278 277 277 276 276 275 275 275 275 274 273 273 272 271 271 271 270 270 270 269 269 268 268 267 266 265 265 265 264 263 262 262
277 278 277 277 275 276 275 275 275 275 273 274 273 274 275 275 276 275 278 284 284 284 284 284 284 284 284 284 283 282 282 283 283 283 283 283 283 284 284 285 286 286 286 282 279 279 279 279 278 278 278 277 277 277 277 276 276 276 276 275 275 275 274 274 274 272 272 272 271 270 270 270 269 268 268 267 267 266 265 264 264 264 263 262 261
276 276 276 275 275 274 275 275 275 275 275 274 275 275 275 276 275 276 276 277 278 281 284 284 284 284 284 284 283 283 283 283 283 283 283 283 283 283 284 283 285 286 284 281 280 278 278 278 278 278 277 277 277 276 276 276 276 276 276 275 275 274 273 273 273 271 270 271 271 269 268 268 268 268 267 267 267 266 265 265 264 262 262 262 262
274 274 275 276 276 276 276 275 275 274 274 274 275 275 274 273 275 276 277 277 277 277 278 281 283 284 283 283 284 283 283 283 283 283 283 283 283 283 284 281 280 281 282 281 280 279 277 277 277 277 276 276 276 276 276 276 275 275 275 274 273 272 271 271 271 270 269 268 268 266 266 266 267 268 267 266 265 265 265 264 263 262 262 262 261
275 275 275 275 276 275 275 275 275 275 274 275 275 275 275 275 276 276 277 277 277 277 277 278 279 282 283 283 283 283 283 283 283 283 283 283 283 283 279 278 278 278 279 280 279 278 277 276 276 275 275 275 275 274 275 274 275 275 274 274 272 271 271 270 270 269 268 267 266 266 265 265 266 266 266 267 266 265 264 263 263 262 262 262 260
274 274 274 274 274 274 274 273 274 275 276 275 275 275 275 275 275 274 274 275 276 276 276 276 276 277 279 278 280 282 283 283 283 283 283 283 283 282 279 278 277 277 277 278 276 275 274 274 274 273 273 273 273 273 273 273 273 272 273 272 271 270 270 269 269 269 268 266 266 265 265 265 266 266 266 265 265 265 264 264 263 262 261 260 260
273 274 273 271 271 271 272 273 274 277 277 277 277 276 275 274 274 274 274 275 275 275 275 275 276 275 275 276 279 279 280 282 282 282 282 282 281 280 277 275 274 275 275 275 274 273 273 272 271 271 270 271 271 270 270 270 270 270 270 269 269 269 271 270 271 269 268 267 266 266 266 265 265 264 264 264 264 263 263 262 261 261 260 260 259
270 274 275 276 276 273 273 274 275 277 277 277 276 276 275 275 274 275 275 274 274 274 274 274 274 273 274 274 275 277 278 277 277 276 277 278 279 278 275 274 273 274 273 273 272 271 270 269 269 269 269 270 270 270 270 270 269 269 269 269 268 269 271 268 268 268 267 267 267 267 267 266 265 264 264 264 263 263 262 261 260 260 260 258 257
271 271 274 277 275 276 275 275 276 276 276 276 276 276 275 275 275 275 274 274 273 273 274 274 274 273 274 274 275 275 275 275 276 276 276 277 277 277 275 274 274 273 273 273 271 270 269 268 268 269 269 269 270 269 269 269 269 269 269 269 268 268 268 268 268 268 267 267 267 267 266 266 265 264 263 264 264 262 261 260 259 258 258 255 254
270 271 272 276 276 276 275 275 275 276 276 276 276 276 275 275 275 274 274 273 273 273 273 274 274 274 274 275 278 278 274 275 275 276 276 276 276 276 275 274 273 272 272 272 272 271 270 269 268 268 268 268 269 269 269 269 268 268 268 268 268 268 267 267 268 267 267 266 266 266 265 265 263 262 261 261 261 260 257 257 256 255 256 255 254
270 271 273 275 275 275 275 274 275 274 275 274 275 275 274 274 274 274 273 272 271 271 272 273 274 274 275 277 278 279 275 273 274 274 275 275 274 274 274 274 274 273 272 273 273 273 272 270 270 269 269 268 269 269 269 268 268 269 269 268 268 267 266 266 266 266 265 265 265 264 263 262 260 261 261 261 257 255 253 254 254 254 253 253 252
271 272 272 273 274 274 274 274 274 274 274 274 274 272 272 273 273 272 271 271 272 272 272 272 272 272 274 277 277 278 276 274 272 274 274 273 273 272 272 273 272 272 272 271 271 273 272 272 271 271 270 270 270 269 270 269 269 269 269 268 267 266 266 264 263 263 263 263 262 261 260 260 260 258 256 255 252 252 253 252 252 251 251 250 251
271 271 271 272 272 271 271 272 271 271 272 271 271 271 271 272 272 272 272 272 272 271 272 272 271 271 272 275 276 276 275 274 273 274 273 272 272 271 271 270 269 269 268 268 269 270 271 271 270 270 269 269 269 270 270 270 269 269 268 267 266 265 265 264 263 262 261 262 261 259 258 257 257 255 254 254 252 252 251 250 251 251 250 248 249
271 271 271 271 271 271 270 270 270 270 269 269 270 270 269 271 271 271 271 271 269 270 270 269 269 270 271 273 274 275 274 273 271 271 272 272 271 270 268 267 268 267 267 266 267 268 269 269 268 267 266 264 264 265 264 265 266 268 268 267 266 264 264 264 263 263 262 262 260 258 257 256 255 254 254 252 252 252 252 252 252 253 251 250 249
271 271 270 270 269 269 269 269 268 269 269 270 270 269 269 269 270 269 269 269 268 268 268 267 268 269 270 272 273 272 272 271 271 271 270 270 269 267 267 266 266 266 265 265 265 266 266 266 266 266 265 263 262 261 260 260 261 261 263 264 265 264 263 261 258 258 258 259 259 258 257 255 255 254 254 252 251 252 252 250 249 251 251 251 250
270 270 270 270 269 268 267 268 269 269 268 268 268 268 268 267 267 266 265 266 266 265 266 265 266 267 268 270 270 271 269 269 268 268 268 267 266 265 265 264 264 262 262 261 262 262 262 264 264 264 263 261 260 260 259 258 257 257 256 257 257 256 255 256 256 257 257 257 257 256 255 255 254 252 253 252 251 252 251 251 251 250 250 250 250
268 268 268 267 267 267 267 267 266 264 266 266 265 265 265 264 264 264 263 263 264 263 263 262 263 264 265 267 267 267 267 266 265 264 264 263 263 262 263 263 262 261 260 260 259 259 259 259 260 260 259 259 259 258 257 257 256 255 254 253 253 253 253 254 254 254 254 254 254 254 254 254 252 252 252 252 252 251 251 251 250 249 249 250 250
266 266 266 266 266 266 266 266 265 266 265 264 264 264 263 264 263 263 263 262 262 261 261 261 261 261 262 263 264 264 264 263 263 261 261 260 260 260 260 259 259 260 260 259 257 257 257 256 257 257 257 258 258 257 256 255 255 254 254 252 253 254 254 254 253 253 253 253 253 252 252 252 252 252 252 252 252 251 252 250 250 251 250 250 250
264 264 264 264 264 264 264 264 264 264 263 263 263 262 262 262 261 261 261 261 260 259 259 258 258 258 258 260 261 262 263 262 261 260 259 259 258 258 258 257 258 258 257 257 256 255 254 254 255 255 255 255 255 255 255 255 255 255 253 253 257 257 256 255 254 254 253 252 253 252 253 253 252 252 252 252 251 251 251 251 251 251 251 250 251
262 262 262 262 262 262 263 263 263 263 262 262 262 262 261 261 260 260 260 259 259 258 258 257 256 256 257 258 258 260 260 260 260 259 259 258 257 257 256 256 256 256 255 255 254 254 253 253 254 254 254 254 254 254 254 254 254 254 254 257 258 258 257 256 255 255 254 253 252 252 253 253 252 251 251 250 250 250 251 251 251 251 250 250 250
Wind_Speed
8 9 7 8 8 9 8 8 8 8 9 9 10 10 9 9 9 9 6 8 8 9 9 10 10 10 10 10 9 9 8 8 8 9 10 10 9 9 9 10 12 9 9 9 6 8 9 10 10 8 8 9 8 7 7 8 7 7 7 7 7 6 8 7 8 3 1 2 3 5 5 6 6 7 7 6 5 4 5 5 5 5 5 5 4
9 9 8 8 10 10 9 7 8 7 10 10 10 10 9 9 8 7 8 8 8 10 10 9 9 10 10 10 9 9 9 10 9 10 11 10 10 7 9 10 9 9 10 11 9 8 9 10 10 9 9 10 9 9 9 8 8 8 8 8 8 8 6 7 6 7 7 2 4 4 5 5 6 5 9 7 6 4 5 5 5 5 5 5 4
8 8 8 9 10 9 8 8 7 8 9 10 11 10 9 8 7 9 9 8 8 9 10 9 10 10 10 10 10 10 10 9 9 10 11 13 13 11 11 13 13 12 12 12 12 10 10 11 11 10 8 8 9 9 8 9 8 10 10 7 9 8 7 5 6 5 8 5 5 5 6 5 6 6 7 6 5 5 6 5 6 5 4 5 4
8 8 9 10 9 8 9 8 9 10 11 10 10 9 8 7 7 8 8 7 9 8 8 9 9 10 11 11 11 10 10 10 10 10 11 12 13 13 12 13 14 14 15 14 13 12 14 12 12 12 11 11 10 8 8 8 9 9 9 7 7 8 6 4 5 5 5 7 5 7 5 6 5 2 5 5 6 5 5 4 3 4 5 4 4
8 9 9 9 8 9 9 9 10 11 11 9 10 9 9 8 7 9 7 8 8 8 8 7 9 10 11 12 12 12 12 12 12 12 11 11 13 13 13 13 13 13 14 14 14 15 14 14 13 12 11 11 9 8 8 10 8 8 8 7 6 5 4 4 4 4 7 7 5 2 4 3 3 3 5 6 4 3 3 5 5 5 5 4 3
9 9 9 9 10 11 11 10 12 12 11 11 11 10 9 9 9 8 8 9 8 8 9 9 10 11 11 11 12 13 13 13 13 14 14 12 12 12 12 13 14 13 13 12 13 13 14 13 12 13 13 13 12 11 10 11 8 8 8 7 6 5 6 4 4 5 6 5 7 4 3 5 3 3 5 5 5 4 4 4 3 4 4 4 3
10 10 9 10 10 12 12 12 12 11 11 11 9 9 10 10 10 10 8 9 9 10 9 10 9 10 11 11 12 12 12 12 13 12 12 11 12 12 12 12 12 11 11 11 11 11 11 11 12 13 15 14 14 14 12 10 9 9 9 8 7 7 6 5 5 5 6 5 2 3 5 3 4 5 2 4 4 4 5 3 5 4 4 5 5
9 9 8 10 11 12 12 11 10 10 9 9 9 10 9 10 11 9 8 10 11 11 12 11 10 10 11 11 12 11 11 11 11 11 11 12 11 11 12 12 12 11 9 10 10 11 12 12 13 15 16 14 13 12 13 12 9 8 6 7 7 7 7 5 5 5 5 4 5 5 3 5 2 1 2 3 2 4 5 6 7 4 4 4 4
8 9 8 11 13 11 8 7 7 8 9 9 10 11 10 9 9 9 10 10 9 11 10 10 11 11 10 11 11 10 10 12 11 12 12 12 12 12 13 13 13 12 10 10 11 12 12 12 12 12 13 13 15 14 14 13 12 9 8 8 9 8 6 5 5 5 4 4 4 2 4 4 5 5 5 6 9 8 3 5 6 4 3 3 4
8 8 9 12 11 7 7 6 8 8 9 11 11 10 9 9 9 9 10 10 10 10 9 10 11 12 12 11 10 10 11 10 12 18 16 13 13 11 11 11 12 12 13 13 12 12 12 11 11 16 17 16 15 16 15 12 13 13 13 11 10 9 8 7 6 6 6 6 6 6 5 6 7 7 7 7 3 2 3 4 5 3 2 3 3
8 9 12 12 9 6 7 9 8 10 11 10 9 9 9 8 9 10 9 9 11 10 9 10 11 11 11 10 11 10 10 10 16 14 16 18 14 12 12 12 12 13 13 13 13 13 11 11 10 13 14 13 13 17 13 14 12 12 15 15 12 13 10 9 8 7 8 7 5 5 6 7 8 5 7 5 4 6 5 5 5 3 4 3 6
9 10 11 8 6 8 9 8 9 10 9 11 10 10 9 9 10 10 10 10 9 7 10 12 11 10 9 10 11 11 11 13 15 14 15 17 17 13 12 12 12 13 13 13 12 12 13 11 10 9 11 13 12 13 15 15 14 15 16 15 14 12 13 11 9 8 8 7 6 7 6 8 6 5 5 4 5 4 5 4 5 5 5 4 4
9 10 9 7 9 9 8 9 10 10 11 10 9 8 10 11 12 11 12 11 8 11 12 11 12 11 11 12 12 12 11 14 15 13 17 17 15 17 10 12 12 13 12 13 12 12 11 11 10 8 8 13 12 11 12 12 13 16 16 15 13 13 12 13 12 10 8 8 8 7 9 7 5 7 7 6 4 5 4 4 4 5 5 4 5
8 9 7 9 9 7 7 8 10 11 9 8 8 9 10 13 11 10 9 8 10 11 11 14 12 12 13 13 12 11 12 12 17 18 19 20 17 15 12 12 11 11 12 12 11 10 11 12 12 11 10 11 10 11 11 12 11 10 10 9 8 10 14 14 13 12 10 9 8 9 8 7 7 5 5 6 6 5 5 5 4 4 4 6 3
7 8 9 9 7 7 8 10 11 10 9 8 9 10 12 10 10 10 10 11 11 12 12 12 12 12 12 11 11 11 10 13 16 18 19 20 18 17 12 9 9 10 11 13 13 13 13 11 10 11 12 12 11 13 12 12 11 10 10 9 9 9 8 8 9 8 8 7 8 9 6 6 6 4 5 5 6 5 6 5 6 4 2 1 1
7 6 9 8 8 9 9 10 10 9 9 9 10 11 11 11 12 10 9 9 9 9 9 10 11 12 12 12 12 13 11 15 17 19 21 20 20 15 12 11 10 11 12 12 11 10 10 11 12 12 12 12 14 19 14 12 12 12 11 10 8 6 7 7 10 9 8 8 8 7 6 6 7 6 6 6 5 3 3 4 3 3 2 2 5
7 7 9 8 8 9 9 10 10 9 9 9 11 12 11 11 10 8 9 10 10 11 12 11 11 11 12 11 12 12 10 14 18 19 20 23 15 12 11 9 9 9 9 8 9 10 12 15 13 11 12 11 14 20 18 15 12 13 10 9 7 7 7 6 11 13 12 13 12 10 10 10 11 11 11 12 9 6 5 3 5 4 4 5 6
8 7 9 8 8 8 8 8 9 9 9 11 12 11 10 8 9 9 11 11 12 12 10 10 10 10 11 12 12 11 10 12 18 19 21 22 18 13 11 10 10 8 8 7 7 7 9 10 10 11 12 12 18 20 20 15 12 12 11 10 9 8 7 6 4 6 11 12 12 12 12 12 13 13 13 12 13 11 8 8 5 6 6 5 6
8 8 9 7 6 7 7 7 9 9 10 12 10 11 11 11 9 8 10 9 10 8 9 9 9 9 9 11 12 13 10 10 16 18 20 21 17 11 10 9 10 9 8 7 5 5 4 8 13 10 10 13 21 21 21 15 11 11 11 10 10 10 10 9 8 7 6 5 6 6 7 10 8 5 5 10 12 9 7 7 5 6 6 5 5
6 5 6 6 6 6 6 7 9 9 11 10 9 10 8 7 8 9 9 9 9 8 8 9 10 9 8 9 10 11 11 9 12 19 20 21 20 13 10 10 11 10 8 8 8 5 5 5 8 13 14 15 19 20 19 17 12 10 9 10 9 12 7 9 9 8 7 8 7 7 7 4 2 2 2 2 3 2 5 6 6 6 6 5 5
5 6 6 6 6 6 6 7 9 10 9 9 9 8 7 8 7 8 9 7 8 8 8 8 9 9 7 7 8 8 9 9 10 16 18 20 22 17 10 11 9 9 8 8 9 9 8 8 6 11 14 15 18 19 20 20 14 10 11 11 12 7 9 8 8 10 8 7 6 6 5 4 3 2 3 3 3 3 4 5 6 7 7 6 6
5 5 6 6 6 6 7 8 8 9 8 7 7 8 7 7 8 8 7 7 9 10 8 7 8 7 6 6 6 7 6 10 7 12 17 19 18 15 11 11 10 10 9 9 8 7 9 10 10 14 20 19 19 19 20 19 19 10 11 14 11 11 9 7 7 7 6 6 5 5 5 5 5 4 4 4 4 4 5 5 6 6 6 7 8
5 5 6 7 7 7 7 8 8 6 7 7 8 9 6 7 7 7 8 7 8 9 8 7 7 7 6 6 5 5 5 6 11 10 16 19 20 18 20 12 15 11 11 11 11 11 9 10 10 16 21 21 21 20 20 22 18 12 16 17 15 15 10 6 7 7 6 6 6 6 6 6 6 6 5 5 5 5 5 5 6 6 6 5 6
5 6 7 7 7 7 7 7 7 6 7 7 7 8 6 6 6 7 7 8 8 8 7 7 7 7 7 6 5 5 5 6 9 13 13 20 19 23 22 18 18 13 11 11 10 10 10 10 10 18 20 20 20 20 21 20 12 16 18 20 18 15 7 7 6 7 7 6 6 6 7 6 6 6 5 5 6 6 6 5 4 5 4 3 3
6 7 8 7 7 7 6 6 6 6 6 6 7 7 6 6 7 6 6 7 7 8 7 6 8 7 7 7 6 5 5 6 6 11 15 16 17 18 19 20 20 17 12 8 8 9 11 14 17 20 20 20 20 21 18 20 21 19 18 18 16 8 8 7 7 7 7 8 7 7 6 7 7 7 6 6 5 2 2 1 2 2 2 2 2
8 8 8 7 7 6 6 6 5 6 6 6 8 7 8 8 8 7 7 7 7 7 7 6 6 6 6 6 5 6 6 5 6 6 8 12 13 18 19 20 20 19 14 8 12 14 15 16 18 18 18 17 13 10 8 8 16 18 17 16 10 8 8 8 8 8 8 7 7 8 7 6 6 6 5 4 4 5 4 4 4 3 3 3 1
9 8 8 8 6 5 6 7 6 5 5 5 6 6 6 7 7 7 7 7 7 6 6 6 6 6 6 6 5 5 5 5 6 6 7 8 8 11 13 13 16 15 11 8 9 9 12 12 10 11 9 13 12 9 9 10 10 11 8 8 7 8 8 8 9 9 8 7 7 6 6 6 4 5 4 5 5 5 5 5 4 4 4 2 3
8 9 8 7 7 5 7 7 7 6 6 6 6 6 6 6 7 9 9 9 8 8 7 7 8 8 8 6 5 4 5 6 7 8 8 9 9 9 10 10 11 10 10 8 8 8 8 9 10 7 7 8 9 7 7 6 7 7 8 8 7 7 8 8 8 7 7 6 6 5 5 5 6 5 5 5 5 4 4 4 4 4 3 4 1
8 8 8 6 8 5 6 6 6 6 6 5 6 5 7 7 8 6 5 7 8 10 9 9 8 7 7 7 7 7 6 8 10 8 9 11 11 10 11 10 10 10 10 12 8 8 8 8 8 9 9 10 9 8 7 7 7 7 8 7 7 7 7 8 8 8 6 6 7 7 7 6 5 5 5 5 5 5 3 4 3 4 2 3 5
7 9 7 7 7 6 6 6 5 6 6 6 5 3 4 6 5 5 6 5 8 7 6 7 7 6 6 7 8 10 10 9 6 12 13 14 15 15 12 12 13 11 13 19 12 9 9 10 10 10 9 9 9 8 8 8 8 8 7 9 7 7 7 8 7 6 6 7 7 7 7 6 6 6 5 6 4 4 5 6 4 4 5 5 5
8 8 7 7 7 7 6 6 6 6 5 5 3 4 1 0 3 5 5 5 6 7 7 5 6 8 8 7 6 8 3 7 13 15 15 16 17 17 16 15 16 18 19 14 11 10 10 10 10 10 9 9 9 9 8 8 8 8 7 8 7 8 7 7 6 6 6 6 6 6 6 7 7 7 7 7 6 5 4 2 3 4 5 6 6
9 9 7 7 6 6 6 5 4 4 5 3 5 4 5 3 1 1 6 5 5 7 6 6 7 8 9 8 6 4 7 10 13 15 17 18 19 19 19 19 19 19 21 18 10 10 10 10 9 9 9 9 9 8 8 8 8 8 8 8 8 7 7 7 6 7 6 6 6 6 6 6 6 7 7 6 6 5 4 4 4 5 5 5 6
9 9 7 6 6 6 5 5 4 5 5 5 4 5 6 5 5 1 0 3 5 5 6 7 8 9 10 9 10 8 8 9 14 15 17 18 20 19 20 20 20 20 21 13 10 10 9 10 9 8 9 10 9 8 8 8 8 8 8 8 8 7 6 6 7 6 6 6 6 6 6 6 6 6 6 5 5 4 5 5 5 5 6 6 6
8 7 6 6 6 5 5 5 5 6 6 5 6 6 6 6 5 5 4 2 1 2 5 6 6 7 8 9 9 10 9 11 12 14 16 17 18 18 17 13 17 18 16 9 9 9 9 9 9 10 9 8 8 8 8 7 7 7 7 6 6 5 6 6 6 6 5 6 6 6 6 6 6 6 5 4 4 4 5 5 5 5 5 5 6
7 8 10 7 6 6 6 5 6 5 5 5 6 5 5 4 5 6 6 6 6 5 4 3 6 8 7 7 9 10 11 11 12 13 14 16 17 18 17 9 11 11 12 10 8 8 9 10 9 8 8 8 8 8 8 7 7 7 8 7 6 6 6 6 6 5 6 6 6 6 6 6 5 5 5 5 5 5 5 4 4 5 5 5 5
7 7 6 6 6 6 5 6 6 6 6 6 5 5 4 4 5 4 3 3 4 4 2 2 1 4 9 7 8 9 10 11 11 12 11 14 16 18 11 10 9 10 10 9 9 8 7 7 7 6 6 6 6 7 7 8 8 8 7 7 7 6 6 6 6 6 6 6 6 6 5 4 5 5 4 4 6 6 5 5 5 5 5 5 4
6 6 6 5 5 5 5 4 5 5 4 4 4 4 3 3 2 2 2 2 3 2 3 2 2 2 2 1 4 8 10 10 10 11 11 12 16 13 8 8 9 8 8 8 6 6 7 6 6 6 7 7 7 7 7 7 7 6 6 7 6 7 7 7 6 6 6 5 5 6 6 5 5 5 5 5 4 4 5 5 5 5 5 5 4
7 6 6 4 4 4 3 5 4 5 4 4 4 5 5 5 5 5 4 4 4 4 4 4 3 4 4 3 3 4 5 8 9 9 10 11 11 8 6 6 6 7 7 6 6 6 7 6 6 7 7 7 7 7 7 6 7 7 7 7 7 7 9 8 8 8 7 6 6 6 6 5 5 5 5 5 6 5 6 5 5 5 4 4 4
6 7 8 6 5 5 5 4 4 5 5 4 4 4 4 4 4 5 5 4 4 4 3 3 4 4 4 3 3 4 5 4 5 5 6 6 6 5 6 6 6 6 5 6 6 6 6 6 6 6 6 7 7 7 7 7 6 7 7 7 6 6 8 6 7 7 7 6 6 6 6 5 5 6 6 7 7 7 6 6 5 5 5 5 6
7 6 6 7 5 5 4 4 4 5 4 5 5 5 5 5 5 5 4 5 5 5 5 5 5 4 4 3 4 4 5 5 5 5 5 6 6 5 6 6 6 6 5 5 5 5 5 4 5 5 5 5 5 6 5 6 6 6 7 7 7 7 7 7 6 7 6 6 6 6 6 6 6 6 6 6 6 6 6 6 5 6 6 5 5
6 5 4 4 5 4 4 5 5 6 5 5 5 5 6 5 5 4 5 5 5 5 5 4 4 4 4 6 9 8 4 5 4 4 4 4 4 3 4 3 3 3 2 3 4 4 4 5 5 5 5 5 5 6 6 7 7 7 7 6 7 7 6 6 6 6 6 6 6 6 6 6 6 6 6 6 5 5 5 4 5 5 6 5 5
5 5 4 3 3 4 4 4 3 4 5 4 5 5 3 4 5 5 4 5 4 4 5 5 4 4 5 11 10 12 6 2 2 2 2 2 2 2 3 3 4 4 4 4 4 5 5 5 5 5 6 6 6 6 6 7 7 7 7 6 6 6 6 6 6 6 6 6 6 6 6 6 6 6 6 5 5 6 5 5 6 5 6 6 5
5 4 3 1 3 3 3 3 2 3 3 4 4 3 3 4 5 4 5 4 5 5 5 5 4 4 4 9 10 12 5 4 3 4 4 4 3 3 4 4 4 4 5 5 5 5 5 6 6 6 6 6 6 7 7 7 6 6 6 6 6 7 6 6 6 6 5 6 6 6 6 6 6 6 6 5 5 6 6 6 5 6 5 5 5
4 2 1 0 1 1 1 3 2 2 2 2 3 2 2 3 4 4 5 5 5 4 4 4 4 4 4 5 7 7 5 5 5 5 5 4 4 4 4 4 4 4 4 4 4 4 5 6 5 4 4 4 5 5 6 6 6 7 7 7 7 7 7 7 7 7 7 6 6 6 6 6 6 6 6 7 6 6 6 5 5 6 6 5 5
3 2 1 0 0 0 0 1 2 2 2 2 3 2 1 3 3 3 4 4 3 4 4 4 5 5 4 6 6 6 5 5 4 4 5 5 5 4 4 4 4 5 5 4 4 4 4 5 5 6 5 3 3 3 3 3 4 5 6 8 7 7 7 7 7 7 7 7 7 6 6 6 6 6 7 7 7 6 7 6 6 5 5 4 5
3 3 2 2 1 0 0 1 1 2 2 2 3 3 2 2 3 3 2 3 3 4 4 4 4 5 5 6 6 4 5 4 5 4 3 4 4 4 4 4 4 4 4 4 4 4 4 5 6 6 6 5 4 3 3 3 3 3 3 3 5 5 4 4 4 5 5 6 6 6 6 6 6 7 7 7 7 6 6 5 5 6 6 6 6
3 2 3 1 2 1 1 1 1 1 1 1 1 1 2 1 1 1 1 1 3 2 3 4 4 5 4 5 4 4 3 4 4 4 4 4 4 5 5 4 4 5 4 3 3 4 4 5 4 5 5 5 5 4 3 3 4 3 3 3 4 5 5 5 5 5 5 6 6 6 6 6 6 6 7 6 5 6 5 6 7 7 6 6 6
4 3 3 3 3 3 2 2 2 2 1 1 2 1 1 1 1 1 1 0 0 0 0 0 1 1 1 1 0 1 2 2 3 2 3 3 4 4 4 4 4 4 4 4 4 3 4 4 4 5 5 5 5 5 4 4 3 4 4 4 4 4 5 5 4 4 4 5 5 6 7 7 6 6 6 7 6 6 6 6 5 4 6 6 7
5 5 4 4 4 4 3 3 2 2 2 2 2 2 2 3 3 3 3 3 3 2 2 1 1 1 1 2 2 3 3 2 3 4 4 4 4 3 3 3 3 4 4 4 4 4 4 4 4 4 5 4 4 4 4 4 4 4 3 4 4 6 7 6 5 5 5 6 6 5 5 6 6 6 6 6 7 6 6 5 6 6 5 5 6
5 5 4 4 4 4 3 2 3 2 2 2 3 3 3 3 4 3 3 3 3 3 3 3 3 3 2 2 2 2 3 3 3 3 3 3 3 2 3 4 4 3 3 3 3 3 3 3 3 3 3 3 3 3 3 4 3 4 3 4 6 8 7 7 6 7 7 5 6 6 6 6 5 6 6 6 6 7 6 6 6 7 6 6 6
5 5 5 5 5 4 4 3 3 3 3 2 2 2 4 4 3 3 3 3 3 3 4 3 3 3 4 3 2 3 4 4 4 3 3 3 3 3 4 4 3 3 3 3 3 3 2 2 2 3 3 3 3 2 2 2 2 3 4 6 8 8 8 7 6 7 7 6 5 6 6 7 6 7 6 6 6 6 8 6 7 6 6 6 6
Wind_Direction
202 212 200 212 215 217 217 219 225 219 219 216 218 216 212 208 208 204 187 200 192 197 200 200 199 203 200 202 200 198 198 196 192 185 191 194 190 187 176 188 192 191 173 180 183 182 184 185 187 189 172 171 180 174 174 174 173 173 167 162 165 167 155 161 171 166 95 86 131 169 152 147 180 192 194 203 217 225 220 225 231 239 242 244 249
205 205 203 208 214 215 216 218 218 222 220 221 225 221 214 210 205 192 197 199 189 198 200 198 198 198 201 203 202 203 205 200 191 186 190 190 187 183 180 185 196 187 177 183 183 186 184 183 187 181 185 180 173 177 173 169 170 164 175 172 173 180 183 146 169 155 175 125 120 77 122 177 179 186 192 197 219 213 225 227 230 226 235 241 244
202 199 204 209 215 214 214 214 211 220 223 223 226 224 220 213 201 201 200 195 196 199 197 194 195 196 200 203 201 200 199 202 201 194 193 190 188 187 185 186 189 186 187 188 184 181 185 189 187 180 179 178 182 182 173 175 172 171 177 180 176 179 185 165 141 161 162 179 151 153 164 179 192 184 201 203 204 198 212 223 227 231 229 232 238
197 199 207 214 211 209 214 211 210 215 220 223 227 224 221 219 206 210 204 192 197 203 198 195 193 195 199 201 202 202 202 200 196 204 200 194 192 190 188 192 195 191 190 187 184 184 188 186 190 182 179 180 180 179 186 177 173 175 173 180 174 175 176 160 164 136 157 145 192 175 174 164 215 178 186 194 197 207 206 228 228 234 236 228 222
199 207 205 212 210 211 215 207 213 215 218 218 225 221 220 219 215 213 202 203 201 197 203 200 200 199 201 202 200 202 204 200 200 203 205 202 199 194 193 196 198 197 194 190 186 187 188 192 185 181 178 178 179 180 180 184 183 169 172 170 170 159 145 150 145 135 142 160 148 149 142 179 170 186 179 181 213 219 228 227 229 227 236 231 223
204 205 206 208 212 214 215 210 216 215 214 217 218 216 216 215 216 219 207 208 202 203 201 200 203 204 206 204 203 206 204 202 203 204 203 201 203 201 197 198 200 199 198 195 191 191 190 192 182 180 181 181 183 184 183 184 172 173 165 162 154 146 149 143 137 126 125 130 146 141 168 171 172 196 187 185 180 210 234 238 249 239 223 257 237
203 206 206 209 214 217 213 215 213 213 213 216 214 214 215 214 211 215 208 210 206 206 207 205 207 206 208 204 205 207 206 205 207 207 204 201 203 202 199 201 203 202 202 198 194 195 194 191 184 185 187 188 182 181 179 177 175 174 169 160 152 150 155 156 149 131 126 126 119 161 164 203 178 200 198 183 196 194 211 239 254 227 211 210 239
205 210 206 215 220 222 218 215 211 212 212 212 214 215 215 216 214 209 203 211 212 210 208 207 208 207 210 207 209 206 206 209 210 209 206 202 200 203 201 199 200 203 202 197 193 195 195 193 190 191 193 191 184 178 173 173 170 164 158 147 150 154 156 152 143 130 132 148 172 183 192 179 233 142 100 132 188 254 213 202 236 235 221 206 201
211 211 212 221 227 225 220 213 212 212 211 212 215 217 215 217 218 213 208 213 213 214 212 208 209 212 213 210 209 205 207 210 208 204 202 203 201 201 201 201 198 197 197 199 200 199 199 198 195 195 197 192 187 180 178 170 161 158 159 156 157 156 150 156 145 139 148 162 183 152 173 210 218 174 189 195 207 214 184 184 229 231 210 219 273
212 213 219 227 230 219 211 206 207 209 213 215 218 216 215 215 215 220 219 215 215 213 211 211 214 215 213 213 208 207 212 214 212 208 203 201 199 201 200 203 200 197 196 199 203 203 202 198 195 193 193 191 182 177 174 166 171 166 162 162 160 158 162 151 156 170 167 178 198 182 191 222 217 207 206 220 193 143 167 184 219 214 140 239 236
215 215 225 228 226 210 205 211 204 211 215 216 217 214 216 214 218 223 225 220 218 213 208 216 219 219 218 214 212 214 218 218 214 206 202 200 198 199 197 200 201 203 203 198 197 195 198 197 193 191 190 186 181 176 165 165 152 151 156 159 164 161 156 162 175 171 176 194 184 177 201 222 231 197 215 206 190 192 198 192 212 194 225 255 280
219 225 231 232 220 214 215 210 210 220 215 217 212 210 207 212 218 220 219 221 220 209 214 218 219 218 220 220 219 218 221 219 214 207 202 197 198 199 199 199 200 204 203 201 200 195 192 190 192 189 189 187 177 176 174 163 155 156 159 159 161 167 168 161 163 174 186 182 184 199 192 220 224 181 209 186 211 200 206 191 203 205 226 226 235
222 230 233 225 224 218 212 208 215 219 219 216 212 207 210 214 217 215 217 215 205 212 220 216 217 215 215 219 222 220 225 217 215 202 205 199 193 201 205 204 200 204 203 203 198 195 188 186 188 185 191 183 176 173 166 165 159 153 153 155 168 174 174 176 174 177 176 182 189 201 201 207 209 222 197 189 166 197 183 200 205 210 211 226 228
223 236 234 230 227 220 213 212 220 223 220 215 209 211 213 220 220 219 221 214 214 218 218 219 219 217 214 217 222 221 222 216 215 211 214 210 201 196 211 206 206 206 205 199 195 189 191 190 182 184 182 179 179 171 167 161 156 151 154 159 170 184 190 191 188 182 174 183 188 206 213 177 211 202 188 164 161 198 188 215 191 205 213 226 213
229 230 235 235 223 217 212 214 221 223 217 211 210 216 217 223 219 216 213 213 214 217 217 220 221 221 220 219 224 224 222 213 215 212 214 213 207 201 213 206 203 202 201 199 196 191 188 188 189 187 179 178 178 170 165 165 160 160 159 165 178 185 184 190 191 187 182 188 197 211 199 189 207 184 169 185 192 198 188 190 192 204 180 71 32
238 233 239 234 223 219 214 219 222 220 216 211 214 220 219 218 219 214 216 219 222 222 226 221 221 220 220 218 220 225 220 209 212 212 211 211 204 207 209 209 209 206 203 202 197 183 174 178 183 182 186 184 176 170 165 158 158 161 170 174 170 172 192 199 198 194 186 192 203 204 196 185 187 182 177 178 191 167 117 71 71 94 128 222 246
243 235 241 236 227 223 216 218 222 220 215 215 220 222 220 221 223 209 217 219 219 219 222 219 219 218 218 219 221 228 223 210 209 210 211 209 200 206 206 209 214 213 209 197 188 184 185 185 183 179 175 181 176 170 164 156 163 168 165 168 171 173 194 196 205 205 199 201 204 203 203 201 208 207 203 201 186 166 133 143 200 161 178 238 249
249 243 246 240 233 227 222 218 224 222 216 221 224 225 222 224 221 205 213 215 220 221 220 224 222 219 216 217 215 222 223 211 208 208 208 207 202 202 202 204 208 199 199 190 191 195 195 179 172 172 175 177 177 172 168 162 161 163 164 168 173 187 200 185 183 202 209 212 209 206 208 210 214 219 219 220 216 185 165 206 193 165 212 220 250
253 245 249 248 243 235 228 224 226 225 223 227 223 224 220 219 217 207 218 220 227 221 221 223 225 221 219 218 212 216 221 214 208 209 205 204 202 201 199 201 199 199 192 186 170 175 172 177 180 178 178 178 181 178 173 164 161 164 170 171 184 198 203 176 182 188 201 202 220 210 217 217 215 206 216 229 233 231 187 204 164 174 207 215 229
261 263 262 256 243 237 227 226 229 227 231 232 226 227 224 220 214 210 218 217 225 220 221 222 224 224 214 215 215 215 217 215 207 209 206 204 199 193 195 195 202 194 182 175 169 157 154 175 183 183 187 188 187 180 171 164 164 172 167 180 182 211 181 176 191 188 189 195 203 199 204 181 148 149 184 222 238 180 183 185 177 180 196 206 202
271 265 262 258 249 238 232 225 232 233 230 232 227 229 217 218 211 210 217 216 221 224 220 223 225 228 216 215 214 217 214 214 210 209 209 205 200 188 196 200 194 179 174 170 175 174 176 177 179 190 187 186 187 182 175 179 176 170 180 187 199 180 146 174 185 180 185 187 188 188 189 191 205 197 217 221 224 206 180 181 180 183 184 197 214
272 266 259 253 249 243 236 237 230 237 236 229 233 231 222 213 212 210 211 209 216 223 221 222 225 228 220 213 214 217 211 211 200 207 207 204 200 178 190 197 183 172 169 179 180 178 177 180 186 189 188 184 188 187 186 185 183 175 194 199 183 163 159 167 167 171 173 173 173 182 186 192 209 215 218 215 216 211 192 194 190 194 203 198 201
277 272 269 265 255 246 240 233 234 228 233 224 228 236 217 213 215 205 206 209 214 221 220 218 219 224 218 212 205 203 195 203 196 198 204 202 199 184 194 184 176 173 178 180 184 190 187 188 186 185 188 184 188 190 193 196 188 191 195 198 193 182 156 155 157 165 169 173 174 188 190 192 195 204 206 209 217 209 204 203 209 206 210 205 207
288 282 274 268 265 260 252 245 238 229 227 221 221 229 219 212 211 208 206 205 211 218 219 209 211 216 214 208 203 197 193 194 201 198 201 203 197 199 194 175 175 184 184 192 190 188 186 188 181 186 191 188 189 195 199 201 198 193 192 198 194 190 158 158 161 169 168 171 183 190 195 195 191 198 203 203 211 215 212 205 200 206 201 199 188
283 276 275 272 270 270 267 259 249 238 229 209 217 217 216 194 209 210 200 210 211 217 215 199 208 212 209 210 203 197 194 199 203 204 202 203 195 183 180 177 180 176 188 198 182 188 185 177 179 187 194 193 193 198 203 205 203 204 197 192 189 181 170 165 167 164 177 189 192 192 193 196 195 197 197 200 206 166 124 165 174 159 99 96 95
281 273 273 271 271 271 274 268 255 247 235 219 218 211 202 197 203 199 194 208 208 212 211 199 212 208 216 211 202 200 199 201 205 200 203 201 195 187 179 180 184 186 189 185 190 187 182 183 186 190 195 196 195 199 197 197 205 204 204 196 186 186 173 171 172 179 193 190 190 194 195 186 195 199 189 164 156 192 188 197 180 193 156 147 159
278 279 275 275 273 267 260 261 256 247 232 230 224 215 201 196 198 196 195 200 203 207 200 197 204 207 212 210 205 199 197 201 201 196 195 193 190 185 183 188 187 187 188 186 180 176 181 180 189 191 195 200 200 198 195 195 200 203 197 199 194 187 184 182 184 188 191 190 194 195 189 182 153 139 156 166 190 197 186 190 184 198 146 146 160
276 279 279 278 276 265 258 253 246 242 231 214 216 219 214 196 196 198 192 194 192 202 194 198 200 203 209 198 185 189 206 208 206 199 197 191 188 181 183 181 184 188 187 183 179 175 173 181 179 174 181 195 201 201 193 186 189 191 192 192 193 186 186 184 188 189 189 184 179 159 133 144 159 162 152 169 190 181 164 171 177 178 153 131 128
274 276 276 278 271 256 245 246 235 232 232 232 233 219 204 202 205 219 219 198 194 192 196 205 206 207 198 185 180 203 208 216 218 205 199 194 185 182 184 186 183 188 184 170 156 158 159 169 173 180 185 191 191 192 190 187 195 194 193 188 184 178 179 185 191 190 169 151 162 158 159 152 152 150 156 166 183 176 170 166 167 160 139 148 212
274 271 269 264 263 256 248 241 234 228 223 218 224 264 251 201 214 200 220 222 221 230 208 209 206 190 190 201 190 197 209 220 188 193 200 199 198 194 190 184 182 179 177 176 165 167 174 176 184 184 186 186 191 190 191 189 187 190 195 195 183 181 181 186 182 168 158 166 160 157 160 158 154 160 163 178 185 180 187 182 180 169 178 202 216
270 268 266 262 252 246 244 240 234 221 218 203 201 198 228 356 199 189 187 201 207 216 218 203 176 186 185 198 205 205 153 156 177 189 196 202 201 200 197 192 186 183 178 169 169 180 182 186 188 188 190 189 195 195 189 187 190 189 188 187 182 184 179 176 172 152 159 160 163 163 160 167 169 170 174 185 182 186 177 179 156 177 196 203 221
265 266 257 256 255 247 238 234 225 213 214 192 192 185 182 154 351 78 160 178 193 194 184 171 179 181 194 191 177 193 179 173 179 189 196 200 203 202 201 197 192 180 181 168 174 189 192 194 194 194 190 194 200 192 188 189 188 185 180 186 191 187 178 182 167 158 161 161 165 166 168 174 173 176 180 180 176 174 174 185 184 185 212 215 224
259 266 264 258 253 243 230 222 217 204 197 186 196 188 180 184 174 182 65 145 158 170 178 178 184 190 195 190 183 185 186 182 185 191 198 203 201 201 200 197 193 186 179 179 191 194 194 196 197 194 191 199 193 188 189 186 186 185 185 190 190 188 184 168 151 163 166 169 163 174 170 171 170 169 175 169 166 175 179 193 193 199 207 217 228
260 264 267 254 244 238 223 216 209 210 201 198 195 191 199 188 184 172 157 138 138 185 190 183 184 189 199 192 192 201 198 193 196 197 199 198 198 197 195 196 196 193 192 194 191 197 192 197 198 196 195 193 188 182 183 185 183 183 184 190 186 164 163 151 162 168 161 169 174 172 166 168 166 166 169 162 171 171 188 198 189 200 215 211 226
265 264 261 252 232 230 221 213 208 201 196 196 195 195 195 190 174 177 181 185 187 181 174 192 203 200 203 215 211 211 210 207 201 198 198 195 194 193 190 187 197 204 206 210 204 197 194 196 198 193 186 187 185 180 183 179 178 182 187 183 171 161 155 165 171 160 161 163 161 166 169 165 168 170 170 170 171 189 199 196 201 203 216 224 224
268 263 260 245 238 233 220 213 203 196 197 198 194 188 177 172 179 193 185 176 169 155 133 167 177 216 203 206 209 211 210 210 206 198 195 192 191 187 187 195 196 205 209 209 204 203 192 197 192 188 178 183 172 180 183 181 187 186 182 174 174 168 166 166 165 163 168 167 172 160 155 158 162 163 160 171 183 190 193 198 210 213 214 227 221
271 266 257 246 235 230 226 214 206 201 191 180 169 165 164 163 151 144 162 177 168 153 142 104 83 52 80 161 209 205 205 206 206 200 195 191 190 191 194 189 194 194 203 203 190 175 186 189 178 171 177 182 182 181 176 182 177 173 178 176 166 167 173 167 165 164 161 164 159 161 158 164 158 162 161 178 190 190 202 202 206 207 208 211 202
265 257 252 246 236 221 209 207 202 186 176 170 172 167 165 164 164 165 166 174 184 179 172 170 167 173 170 207 163 166 193 192 191 193 192 190 192 194 181 180 186 197 202 192 185 183 189 176 174 179 179 175 177 174 173 172 171 169 169 166 168 172 173 172 173 166 169 162 163 161 159 160 159 161 170 186 202 204 207 203 203 223 226 211 200
260 250 243 231 212 202 196 189 183 174 176 174 169 160 168 169 177 179 184 175 181 184 181 174 177 188 188 180 145 155 138 173 182 189 185 188 193 176 160 174 183 194 188 181 173 179 179 179 177 168 172 178 177 175 173 170 165 166 161 158 162 165 174 168 175 171 172 176 167 164 166 173 175 181 184 192 206 201 202 197 198 203 216 223 216
269 257 241 217 204 195 183 184 175 170 177 174 182 176 173 180 186 186 175 176 186 189 185 190 194 188 184 176 178 169 167 186 186 186 188 191 192 180 173 181 189 188 181 168 168 167 170 168 165 168 170 171 168 165 164 159 161 161 159 164 163 172 176 171 175 173 178 173 171 173 178 184 183 181 188 197 201 191 192 198 200 198 205 209 217
277 270 253 230 204 186 175 172 186 187 181 184 183 181 191 186 181 177 181 190 190 191 198 198 193 175 182 196 194 188 172 188 186 195 200 202 190 174 178 168 161 156 136 141 145 146 149 148 153 160 159 163 162 160 159 159 158 161 166 165 164 172 171 174 174 175 175 175 181 180 184 180 173 170 192 206 189 181 190 183 187 191 200 201 200
276 271 254 248 220 204 190 203 200 179 172 171 179 191 185 181 175 173 180 185 190 193 197 203 193 176 194 198 202 199 185 174 155 168 162 149 124 122 134 140 141 136 131 134 146 150 146 150 157 162 163 162 159 161 158 162 165 163 164 165 172 171 172 178 177 175 174 178 180 181 179 175 176 185 188 165 170 171 173 183 190 185 186 192 192
284 272 282 272 264 238 210 184 157 169 165 173 180 162 162 164 177 173 182 187 191 193 199 197 180 166 188 202 200 204 183 177 160 172 160 153 135 136 137 143 146 146 151 149 152 150 152 158 162 168 167 169 167 165 169 168 165 163 162 170 173 175 177 173 170 174 170 172 178 175 172 171 169 172 172 169 168 171 182 182 181 182 191 184 190
311 316 322 269 273 23 76 142 148 154 144 132 125 138 163 171 173 177 184 187 191 190 194 184 159 173 182 205 201 207 189 179 172 178 171 165 160 156 148 134 137 131 135 139 146 148 153 159 160 152 144 157 162 167 168 168 166 167 170 170 175 176 176 173 177 176 175 176 174 172 173 174 174 167 175 174 161 171 178 176 182 187 184 192 182
333 326 334 2 2 60 32 64 104 108 103 117 133 126 139 157 174 176 178 185 183 183 186 176 171 176 185 198 202 204 187 181 174 168 174 172 167 151 137 136 139 138 132 135 139 143 147 151 148 148 144 117 93 107 114 125 149 163 169 168 169 176 182 181 188 181 173 173 172 172 172 173 178 177 178 172 172 175 180 188 188 182 187 186 184
343 347 353 354 353 19 24 38 56 105 148 164 157 159 148 150 170 180 189 185 183 186 186 183 189 193 196 200 203 200 185 169 171 160 151 148 139 138 140 138 132 132 130 134 135 136 140 144 152 154 153 148 136 111 92 96 96 97 123 148 157 164 160 142 120 131 156 166 167 174 172 175 177 177 173 171 176 177 188 181 180 188 192 193 199
349 29 13 9 0 1 8 15 27 29 32 28 34 50 52 36 38 41 192 192 186 184 183 191 189 203 207 207 204 200 167 158 150 148 141 128 125 115 117 117 119 112 105 91 92 112 123 130 138 141 141 136 128 120 121 107 94 98 86 87 101 109 123 141 151 156 166 172 162 155 166 170 172 172 173 161 168 179 178 185 184 191 194 193 191
353 9 17 22 17 15 5 9 23 18 27 24 27 32 38 39 35 34 25 28 32 16 337 292 270 272 242 275 46 67 91 96 89 92 92 110 102 102 128 130 135 133 121 117 85 83 95 93 103 113 124 133 135 129 120 118 104 107 99 98 117 129 132 133 142 140 146 146 155 157 158 163 165 167 168 171 178 175 178 194 189 190 187 193 190
6 6 14 18 27 13 13 3 12 14 22 31 48 57 45 52 52 49 46 44 42 31 28 23 24 29 32 29 35 50 58 73 75 58 50 55 63 77 52 59 92 118 127 117 57 62 53 64 93 100 107 121 128 134 134 138 140 136 138 141 137 133 131 129 139 151 136 137 141 140 142 148 159 167 170 174 179 179 186 181 180 188 188 188 187
10 9 18 17 29 21 14 19 20 28 22 38 47 55 35 67 56 62 62 67 62 53 45 43 54 42 57 43 45 46 68 76 80 74 72 71 59 65 58 66 61 51 57 80 62 59 63 76 86 89 96 103 113 120 137 148 157 160 153 155 160 147 144 138 134 138 145 152 150 155 154 158 157 164 173 176 173 175 182 186 187 186 186 183 191
13 13 24 24 17 10 11 12 18 19 24 25 34 58 49 51 60 68 78 76 90 81 78 80 83 74 75 77 79 67 63 59 54 73 91 94 99 93 92 90 95 92 87 85 90 74 79 70 80 80 86 91 97 121 120 127 121 143 166 177 174 165 159 154 152 154 144 141 145 144 155 161 165 167 174 175 172 180 188 181 183 187 188 189 183